Stanley, ND

5:55 PM CST on November 21, 2017 (GMT -0600)
Stanley

Weather History for K08D - February, 2013

Change the Weather History Date:

Thursday, February 7, 2013

  Actual Average (KMIB) Record (KMIB)
Temperature  
Mean Temperature 16 °F -  
Max Temperature 24 °F 21 °F 48 °F (2002)
Min Temperature 10 °F 4 °F -18 °F (2007)
Degree Days  
Heating Degree Days 48    
Moisture  
Dew Point 16 °F    
Average Humidity 97    
Maximum Humidity 100    
Minimum Humidity 86    
Precipitation  
Precipitation 0.07 in - - ()
Sea Level Pressure  
Sea Level Pressure 30.07 in    
Wind  
Wind Speed 10 mph (SE)    
Max Wind Speed 14 mph    
Max Gust Speed -    
Visibility 4 miles    
Events Fog , Snow    
Averages and records for this station are not official NWS values.
T = Trace of Precipitation, MM = Missing Value Source: NWS Daily Summary

Daily Weather History Graph

Daily Weather History Graph

Search for Another Location

Airport or City:

Trip Planner

Search our weather history database for the weather conditions in past years. The results will help you decide how hot, cold, wet, or windy it might be!

Date:

Astronomy

Feb. 07, 2013 Rise Set
Actual Time 8:09 AM CST 5:59 PM CST
Civil Twilight 7:36 AM CST 6:32 PM CST
Nautical Twilight 6:59 AM CST 7:09 PM CST
Astronomical Twilight 6:22 AM CST 7:45 PM CST
Moon 5:57 AM CST (2/7) 3:19 PM CST (2/7)
Length of Visible Light 10h 55m
Length of Day
9h 50m
Waning Crescent, 9% of the Moon is Illuminated
Feb 7
Waning Crescent
Feb 10
New
Feb 17
First Quarter
Feb 25
Full
Mar 4
Last Quarter

Hourly Weather History & Observations

Time (CST) Temp. Windchill Dew Point Humidity Pressure Visibility Wind Dir Wind Speed Gust Speed Precip Events Conditions
12:15 AM 15.8 °F 4.2 °F 14.0 °F 93% 30.03 in 2.5 mi East 9.2 mph - N/A Snow Light Snow
12:35 AM 15.8 °F 5.1 °F 14.0 °F 93% 30.04 in 8.0 mi East 8.1 mph - N/A Snow Light Snow
12:55 AM 15.8 °F 4.2 °F 15.8 °F 100% 30.04 in 2.5 mi ESE 9.2 mph - 0.03 in Snow Light Snow
1:15 AM 15.8 °F 4.2 °F 15.8 °F 100% 30.04 in 10.0 mi ESE 9.2 mph - N/A Snow Light Snow
1:35 AM 15.8 °F 3.4 °F 14.0 °F 93% 30.04 in 10.0 mi ESE 10.4 mph - N/A   Overcast
1:55 AM 15.8 °F 5.1 °F 14.0 °F 93% 30.05 in 10.0 mi East 8.1 mph - N/A   Overcast
2:15 AM 15.8 °F 4.2 °F 14.0 °F 93% 30.05 in 10.0 mi ESE 9.2 mph - N/A   Overcast
2:35 AM 14.0 °F 1.2 °F 14.0 °F 100% 30.06 in 10.0 mi ESE 10.4 mph - N/A   Overcast
2:55 AM 14.0 °F 0.5 °F 14.0 °F 100% 30.06 in 10.0 mi ESE 11.5 mph - N/A   Overcast
3:15 AM 14.0 °F 1.2 °F 14.0 °F 100% 30.06 in 10.0 mi ESE 10.4 mph - N/A   Overcast
3:35 AM 14.0 °F 1.2 °F 14.0 °F 100% 30.06 in 10.0 mi ESE 10.4 mph - N/A Snow Light Snow
3:55 AM 14.0 °F -0.2 °F 14.0 °F 100% 30.05 in 10.0 mi ESE 12.7 mph - N/A   Overcast
4:15 AM 14.0 °F 0.5 °F 14.0 °F 100% 30.05 in 5.0 mi ESE 11.5 mph - N/A Snow Light Snow
4:35 AM 14.0 °F 0.5 °F 12.2 °F 93% 30.06 in 3.0 mi ESE 11.5 mph - 0.01 in Snow Light Snow
4:55 AM 14.0 °F -0.2 °F 12.2 °F 93% 30.05 in 3.0 mi ESE 12.7 mph - 0.03 in Snow Light Snow
5:15 AM 12.2 °F -1.8 °F 10.4 °F 92% 30.06 in 9.0 mi ESE 11.5 mph - N/A Snow Light Snow
5:35 AM 12.2 °F -1.8 °F 10.4 °F 92% 30.06 in 9.0 mi ESE 11.5 mph - 0.01 in Snow Light Snow
6:15 AM 12.2 °F -2.5 °F 10.4 °F 92% 30.06 in 10.0 mi ESE 12.7 mph - N/A   Overcast
6:35 AM 12.2 °F -0.2 °F 10.4 °F 92% 30.07 in 10.0 mi ESE 9.2 mph - N/A   Overcast
6:55 AM 10.4 °F -1.5 °F 10.4 °F 100% 30.07 in 10.0 mi ESE 8.1 mph - N/A   Overcast
7:15 AM 10.4 °F -3.3 °F 8.6 °F 92% 30.07 in 10.0 mi ESE 10.4 mph - N/A   Overcast
7:35 AM 10.4 °F -3.3 °F 8.6 °F 92% 30.07 in 10.0 mi ESE 10.4 mph - N/A   Overcast
7:55 AM 10.4 °F -3.3 °F 8.6 °F 92% 30.07 in 10.0 mi ESE 10.4 mph - N/A   Overcast
8:15 AM 10.4 °F -2.4 °F 8.6 °F 92% 30.09 in 10.0 mi SE 9.2 mph - N/A   Overcast
8:35 AM 10.4 °F -2.4 °F 8.6 °F 92% 30.09 in 10.0 mi SE 9.2 mph - N/A   Overcast
8:55 AM 10.4 °F -1.5 °F 10.4 °F 100% 30.10 in 10.0 mi SE 8.1 mph - N/A   Overcast
9:15 AM 10.4 °F -1.5 °F 10.4 °F 100% 30.10 in 10.0 mi ESE 8.1 mph - N/A   Overcast
9:35 AM 10.4 °F -2.4 °F 10.4 °F 100% 30.10 in 7.0 mi ESE 9.2 mph - N/A   Overcast
9:55 AM 12.2 °F -1.0 °F 10.4 °F 92% 30.10 in 10.0 mi ESE 10.4 mph - N/A   Overcast
10:15 AM 12.2 °F -0.2 °F 10.4 °F 92% 30.10 in 10.0 mi ESE 9.2 mph - N/A   Overcast
10:35 AM 12.2 °F -0.2 °F 10.4 °F 92% 30.10 in 8.0 mi ESE 9.2 mph - N/A   Overcast
10:55 AM 14.0 °F 2.9 °F 10.4 °F 86% 30.11 in 2.5 mi SE 8.1 mph - N/A   Overcast
11:15 AM 14.0 °F 2.0 °F 12.2 °F 93% 30.11 in 2.0 mi SE 9.2 mph - N/A   Overcast
11:35 AM 14.0 °F 1.2 °F 12.2 °F 93% 30.12 in 1.0 mi SE 10.4 mph - N/A   Overcast
11:55 AM 14.0 °F 2.0 °F 14.0 °F 100% 30.11 in 0.8 mi ESE 9.2 mph - N/A   Overcast
12:15 PM 15.8 °F 4.2 °F 14.0 °F 93% 30.11 in 1.0 mi SE 9.2 mph - N/A   Overcast
12:35 PM 15.8 °F 5.1 °F 15.8 °F 100% 30.11 in 1.2 mi SE 8.1 mph - N/A   Overcast
12:55 PM 15.8 °F 7.2 °F 15.8 °F 100% 30.11 in 1.8 mi SSE 5.8 mph - N/A   Overcast
1:15 PM 17.6 °F 5.7 °F 15.8 °F 93% 30.10 in 1.8 mi SE 10.4 mph - N/A   Overcast
1:35 PM 17.6 °F 7.3 °F 17.6 °F 100% 30.10 in 2.0 mi SE 8.1 mph - N/A   Overcast
1:55 PM 17.6 °F 7.3 °F 17.6 °F 100% 30.09 in 2.5 mi SE 8.1 mph - N/A   Overcast
2:15 PM 17.6 °F 7.3 °F 17.6 °F 100% 30.08 in 1.2 mi SE 8.1 mph - N/A Snow Light Snow
2:35 PM 17.6 °F 7.3 °F 17.6 °F 100% 30.08 in 3.0 mi SE 8.1 mph - N/A   Overcast
2:55 PM 17.6 °F 6.4 °F 17.6 °F 100% 30.08 in 3.0 mi SE 9.2 mph - N/A   Overcast
3:15 PM 19.4 °F 6.0 °F 17.6 °F 93% 30.07 in 2.5 mi SE 13.8 mph - N/A   Overcast
3:35 PM 19.4 °F 6.6 °F 19.4 °F 100% 30.07 in 2.5 mi SE 12.7 mph - N/A   Overcast
3:55 PM 19.4 °F 7.2 °F 19.4 °F 100% 30.07 in 2.0 mi SE 11.5 mph - N/A   Overcast
4:15 PM 19.4 °F 7.9 °F 19.4 °F 100% 30.06 in 2.0 mi SE 10.4 mph - N/A   Overcast
4:35 PM 19.4 °F 7.9 °F 19.4 °F 100% 30.06 in 1.8 mi SSE 10.4 mph - N/A   Overcast
4:55 PM 19.4 °F 8.6 °F 19.4 °F 100% 30.06 in 1.5 mi SE 9.2 mph - N/A   Overcast
5:15 PM 21.2 °F 11.7 °F 21.2 °F 100% 30.06 in 1.5 mi SE 8.1 mph - N/A   Overcast
5:35 PM 21.2 °F 10.9 °F 21.2 °F 100% 30.06 in 1.2 mi SE 9.2 mph - N/A   Overcast
5:55 PM 21.2 °F 10.9 °F 21.2 °F 100% 30.07 in 1.0 mi SSE 9.2 mph - N/A   Overcast
6:15 PM 21.2 °F 10.1 °F 21.2 °F 100% 30.07 in 0.8 mi SE 10.4 mph - N/A   Overcast
6:35 PM 21.2 °F 9.5 °F 21.2 °F 100% 30.06 in 1.0 mi SE 11.5 mph - N/A   Overcast
6:55 PM 21.2 °F 10.1 °F 21.2 °F 100% 30.07 in 1.0 mi SE 10.4 mph - N/A   Overcast
7:15 PM 21.2 °F 10.9 °F 21.2 °F 100% 30.07 in 0.8 mi SE 9.2 mph - N/A   Overcast
7:35 PM 21.2 °F 10.1 °F 21.2 °F 100% 30.07 in 0.8 mi SE 10.4 mph - N/A   Overcast
7:55 PM 21.2 °F 10.1 °F 21.2 °F 100% 30.07 in 0.8 mi SE 10.4 mph - N/A   Overcast
8:15 PM 21.2 °F 10.1 °F 21.2 °F 100% 30.06 in 0.5 mi SE 10.4 mph - N/A Fog Light Freezing Fog
8:35 PM 21.2 °F 10.9 °F 21.2 °F 100% 30.06 in 0.5 mi SE 9.2 mph - N/A Fog Light Freezing Fog
8:55 PM 23.0 °F 13.1 °F 23.0 °F 100% 30.06 in 0.5 mi SSE 9.2 mph - N/A Fog Light Freezing Fog
9:15 PM 23.0 °F 12.4 °F 23.0 °F 100% 30.05 in 0.5 mi SE 10.4 mph - N/A Fog Light Freezing Fog
9:35 PM 23.0 °F 13.1 °F 23.0 °F 100% 30.05 in 0.5 mi SE 9.2 mph - N/A Fog Light Freezing Fog
9:55 PM 23.0 °F 12.4 °F 23.0 °F 100% 30.05 in 0.5 mi SSE 10.4 mph - N/A Fog Light Freezing Fog
10:15 PM 23.0 °F 12.4 °F 23.0 °F 100% 30.05 in 0.5 mi SSE 10.4 mph - N/A Fog Light Freezing Fog
10:35 PM 23.0 °F 12.4 °F 23.0 °F 100% 30.04 in 0.5 mi SSE 10.4 mph - N/A Fog Light Freezing Fog
10:55 PM 23.0 °F 12.4 °F 23.0 °F 100% 30.04 in 0.5 mi SSE 10.4 mph - N/A Fog Light Freezing Fog
11:15 PM 23.0 °F 11.7 °F 23.0 °F 100% 30.03 in 0.5 mi SSE 11.5 mph - N/A Fog Light Freezing Fog
11:35 PM 23.0 °F 12.4 °F 23.0 °F 100% 30.03 in 0.2 mi SSE 10.4 mph - N/A Fog Light Freezing Fog
11:55 PM 24.8 °F 14.0 °F 24.8 °F 100% 30.03 in 0.2 mi SSE 11.5 mph - N/A Fog Light Freezing Fog